COSMOS 1275 DEB, 12690

Orbit data source: Space-Track

COSMOS 1275 DEB, 12690 is space debris in LEO originally from a launch on Thu, 04 Jun 1981 UTC launched from the Plesetsk Missile And Space Complex (PKMTR). Debris objects in space refer to the collection of defunct objects orbiting the Earth. Examples of debris include non-operational satellites, rocket bodies, and fragments generated from explosions, collisions, or faulty payload assembly.

Loading next visibility...
Identifier
12690, 1981-053AJ
Orbit
LEO
Country
Flag of CISCIS
Related business
Manufacturer
Unknown
Mission
Spacecraft
Bus & Motor
Unknown
Mass
Unknown
Launch date (UTC)
1981-06-04 (44 years ago)
Launch vehicle
Unknown
Launch site
Plesetsk Missile And Space Complex (PKMTR)
Object type
Payload
Rocket body
Debris
Shape & HBR
Unknown
Radar Cross Section
Medium (>0.1 m² and <1 m²)

Expand to show TLE details & history
Last TLE update: 15 hours ago

TLE from 15 hours ago
0 COSMOS 1275 DEB
1 12690U 81053AJ  25245.89377035  .00002199  00000-0  18615-2 0  9999
2 12690  82.9540 191.0561 0086635 207.5740 207.4487 13.85475835204337
Epoch: 2025-09-02T21:27Z
TLE epoch observation values (Epoch: 2025-09-02T21:27:01.758Z)
Latitude
54.0626°
Longitude
-103.21336°
Altitude
1,009.845 km
Speed
7.323 km/s
True Right ascension
13h 23m 17s
True Declination
53° 54' 17"
Sunlit
Object was in daylight at epoch
Visualization orbit readout
Latitude
Unknown
Longitude
Unknown
Altitude
Unknown
Speed
Unknown
Apparent Right ascension
Unknown
Apparent Declination
Unknown
Sunlit
N/A
Visualization observer readout
Local Sidereal Time
04:06:15
Azimuth
Unknown
Elevation
Unknown
Doppler factor
Unknown
Orbital elements
Apogee altitude
1,005.077 km
Perigee altitude
878.247 km
Semi-major axis
7,319.799 km
Eccentricity
0.00866
Inclination
82.954°
RAAN
191.0561°
Arg. of periapsis
207.574°
True anomaly
206.99544°
Mean anomaly
207.4487°
Eccentric anomaly
207.22164°
Mean motion
3.46573 °/min
Orbital period
103.87 mins
BSTAR
0.0018615
Loading maneuver chart data...
Computing Atmospheric mass density...
Loading historical data...
Loading historical data...
Loading historical data...
Loading historical data...
Loading historical data...
Loading historical data...
Loading historical data...

Documentation

Showing up to 5 results
|